Location: St. Louis
(38.6270°N, 90.1994°W)
Time: 12:10:02
(UTC-06:00)

A-11 Canister half - Pass Details

Date: 12 December 2021
Orbit: 1524 x 1684 km, 47.3° (Epoch: 25 January)

Event Time Altitude Azimuth Distance (km) Brightness Sun altitude
Rises 23:45:18 0° 250° (WSW) 4,897 - -74.4°
Reaches altitude 10° 23:48:28 10° 253° (WSW) 3,923 - -74.5°
Maximum altitude 23:58:35 70° 337° (NNW) 1,768 - -74.5°
Drops below altitude 10° 00:08:44 10° 61° (ENE) 3,936 - -74.3°
Sets 00:11:55 0° 64° (ENE) 4,914 - -74.1°
